Location: Moena
(46.3667°N, 11.6500°E)
Time: 16:07:52
(UTC+00:00)

Cosmos 1862 Rocket - Pass Details

Date: 03 March 2021
Orbit: 603 x 634 km, 82.5° (Epoch: 17 April)

Event Time Altitude Azimuth Distance (km) Brightness Sun altitude
Rises 17:21:54 0° 356° (N) 2,944 7.0 -4.2°
Reaches altitude 10° 17:24:16 10° 4° (N) 2,031 6.1 -4.6°
Maximum altitude 17:28:33 42° 75° (ENE) 913 4.0 -5.3°
Drops below altitude 10° 17:32:47 10° 147° (SSE) 2,010 5.9 -6.0°
Sets 17:35:07 0° 154° (SSE) 2,910 6.8 -6.4°
